User: anonymous   Login
Location: Gudip?du
(17.0263°N, 80.8301°E)
Time: 05:26:35
(UTC+00:00)
Language:

Cosmos 773 Rocket - Orbit

View from above orbital plane
View from above orbital plane
View from above satellite
View from above satellite

Ground track
Ground track

The orbit data is extracted from the following two-line orbital elements,

1 08344U 75094B   24281.26829032  .00001805  00000-0  57923-3 0  9996
2 08344  74.0547 245.8220 0022156 201.6332 158.3889 14.40048262569399
Epoch (UTC): 07 October 2024 06:26:20
Eccentricity: 0.0022156
inclination: 74.0547°
perigee height: 742 km
apogee height: 774 km
right ascension of ascending node: 245.8220°
argument of perigee: 201.6332°
revolutions per day: 14.40048262
mean anomaly at epoch: 158.3889°
orbit number at epoch: 56939

The dashed part of the orbit path shows where the satellite is in the earth's shadow,  

DLR